Saint Michaels, AZ

10:33 AM MST on February 10, 2016 (GMT -0700)
Window Rock

Weather History for KRQE - November, 2011

Change the Weather History Date:

Sunday, November 13, 2011

  Actual Average Record
Temperature  
Mean Temperature 41 °F -  
Max Temperature 48 °F 54 °F 72 °F (1967)
Min Temperature 34 °F 25 °F 10 °F (1975)
Degree Days  
Heating Degree Days 24    
Moisture  
Dew Point 37 °F    
Average Humidity 83    
Maximum Humidity 93    
Minimum Humidity 68    
Precipitation  
Precipitation 0.08 in - - ()
Sea Level Pressure  
Sea Level Pressure 29.89 in    
Wind  
Wind Speed 8 mph (WSW)    
Max Wind Speed 22 mph    
Max Gust Speed 33 mph    
Visibility 9 miles    
Events Rain    
Averages and records for this station are not official NWS values.
T = Trace of Precipitation, MM = Missing Value Source: NWS Daily Summary

Daily Weather History Graph

Daily Weather History Graph

Search for Another Location

Airport or City:

Trip Planner

Search our weather history database for the weather conditions in past years. The results will help you decide how hot, cold, wet, or windy it might be!

Date:

Astronomy

Nov. 13, 2011 Rise Set
Actual Time 6:49 AM MST 5:10 PM MST
Civil Twilight 6:22 AM MST 5:37 PM MST
Nautical Twilight 5:52 AM MST 6:08 PM MST
Astronomical Twilight 5:21 AM MST 6:38 PM MST
Moon 7:26 PM MST (11/13) 9:21 AM MST (11/13)
Length of Visible Light 11h 15m
Length of Day
10h 20m
Waning Gibbous, 92% of the Moon is Illuminated
Nov 13
Waning Gibbous
Nov 18
Last Quarter
Nov 24
New
Dec 2
First Quarter
Dec 10
Full

Hourly Weather History & Observations

Time (MST) Temp. Windchill Dew Point Humidity Pressure Visibility Wind Dir Wind Speed Gust Speed Precip Events Conditions
12:53 AM 34.0 °F 29.8 °F 27.0 °F 75% 29.87 in 10.0 mi NW 4.6 mph - N/A   Clear
1:53 AM 37.0 °F - 28.0 °F 70% 29.84 in 10.0 mi Calm Calm - N/A   Overcast
2:53 AM 37.0 °F 33.3 °F 28.9 °F 73% 29.85 in 10.0 mi WSW 4.6 mph - N/A   Mostly Cloudy
3:46 AM 39.2 °F 35.9 °F 30.2 °F 70% 29.98 in 10.0 mi South 4.6 mph - N/A   Overcast
3:53 AM 39.9 °F 35.8 °F 30.9 °F 70% 29.82 in 10.0 mi SSW 5.8 mph - N/A   Overcast
4:53 AM 41.0 °F 34.7 °F 32.0 °F 70% 29.81 in 10.0 mi SW 10.4 mph - N/A   Overcast
5:53 AM 39.9 °F 36.7 °F 33.1 °F 77% 29.82 in 10.0 mi SSW 4.6 mph - 0.00 in   Overcast
6:53 AM 39.9 °F 35.1 °F 35.1 °F 83% 29.83 in 10.0 mi SW 6.9 mph - N/A   Overcast
7:18 AM 39.2 °F 35.9 °F 35.6 °F 87% 29.96 in 10.0 mi SSW 4.6 mph - N/A   Overcast
7:53 AM 39.9 °F 36.7 °F 35.1 °F 83% 29.85 in 10.0 mi SSW 4.6 mph - N/A   Overcast
8:27 AM 41.0 °F 35.8 °F 35.6 °F 81% 29.98 in 10.0 mi SSW 8.1 mph - N/A   Overcast
8:53 AM 41.0 °F 35.2 °F 36.0 °F 82% 29.86 in 10.0 mi SW 9.2 mph - N/A   Overcast
9:53 AM 42.1 °F 36.6 °F 37.9 °F 85% 29.86 in 10.0 mi SW 9.2 mph - 0.00 in   Overcast
10:53 AM 43.0 °F 36.8 °F 39.0 °F 86% 29.86 in 10.0 mi WSW 11.5 mph - 0.00 in   Overcast
11:27 AM 44.6 °F 38.1 °F 37.4 °F 76% 29.98 in 10.0 mi WSW 13.8 mph - N/A   Overcast
11:53 AM 43.0 °F 35.1 °F 39.0 °F 86% 29.86 in 10.0 mi SW 17.3 mph 23.0 mph 0.00 in Rain Light Rain
12:53 PM 48.0 °F - 37.9 °F 68% 29.82 in 10.0 mi WSW 21.9 mph 33.4 mph 0.00 in   Mostly Cloudy
1:53 PM 45.0 °F 38.5 °F 39.9 °F 82% 29.82 in 8.0 mi WSW 13.8 mph 20.7 mph 0.00 in Rain Light Rain
2:51 PM 44.6 °F 38.8 °F 39.2 °F 81% 29.93 in 10.0 mi West 11.5 mph - 0.02 in Rain Light Rain
2:53 PM 44.1 °F 38.1 °F 39.9 °F 85% 29.81 in 10.0 mi West 11.5 mph - 0.02 in Rain Light Rain
3:20 PM 44.6 °F 38.4 °F 39.2 °F 81% 29.94 in 10.0 mi West 12.7 mph 19.6 mph 0.00 in   Overcast
3:53 PM 44.1 °F 37.7 °F 39.9 °F 85% 29.81 in 5.0 mi West 12.7 mph - 0.00 in Rain Light Rain
4:03 PM 42.8 °F 37.0 °F 39.2 °F 87% 29.94 in 5.0 mi West 10.4 mph - 0.00 in Rain Light Rain
4:21 PM 42.8 °F 37.5 °F 39.2 °F 87% 29.95 in 5.0 mi West 9.2 mph - 0.00 in Rain Light Rain
4:34 PM 42.8 °F 37.0 °F 39.2 °F 87% 29.94 in 7.0 mi West 10.4 mph - 0.02 in Rain Light Rain
4:53 PM 43.0 °F 38.8 °F 39.0 °F 86% 29.81 in 10.0 mi WSW 6.9 mph - 0.02 in Rain Light Rain
5:18 PM 42.8 °F 37.5 °F 39.2 °F 87% 29.94 in 10.0 mi WSW 9.2 mph - 0.00 in   Overcast
5:50 PM 42.8 °F 37.0 °F 39.2 °F 87% 29.94 in 10.0 mi South 10.4 mph 23.0 mph 0.00 in   Overcast
5:53 PM 43.0 °F 37.7 °F 39.0 °F 86% 29.81 in 10.0 mi SW 9.2 mph 19.6 mph 0.00 in   Overcast
6:00 PM 42.8 °F 38.0 °F 39.2 °F 87% 29.95 in 10.0 mi WSW 8.1 mph - N/A   Overcast
6:08 PM 42.8 °F 38.6 °F 39.2 °F 87% 29.95 in 10.0 mi SW 6.9 mph - N/A   Overcast
6:53 PM 43.0 °F 39.5 °F 39.0 °F 86% 29.82 in 10.0 mi WSW 5.8 mph - N/A   Overcast
7:53 PM 43.0 °F 37.2 °F 37.9 °F 82% 29.84 in 10.0 mi WSW 10.4 mph - N/A   Overcast
8:53 PM 42.1 °F 34.5 °F 37.9 °F 85% 29.85 in 9.0 mi SW 15.0 mph 26.5 mph 0.00 in Rain Light Rain
9:53 PM 41.0 °F 35.2 °F 37.9 °F 89% 29.86 in 7.0 mi West 9.2 mph - 0.02 in Rain Light Rain
10:45 PM 39.2 °F 33.0 °F 37.4 °F 93% 30.00 in 10.0 mi WSW 9.2 mph - 0.02 in   Overcast
10:53 PM 39.9 °F 34.5 °F 37.0 °F 89% 29.87 in 10.0 mi WSW 8.1 mph - 0.02 in   Overcast
11:04 PM 39.2 °F 34.2 °F 37.4 °F 93% 30.00 in 10.0 mi WSW 6.9 mph - N/A   Overcast
11:38 PM 37.4 °F 31.4 °F 35.6 °F 93% 29.99 in 10.0 mi SW 8.1 mph - N/A   Scattered Clouds
11:53 PM 37.9 °F 33.5 °F 36.0 °F 93% 29.87 in 10.0 mi SW 5.8 mph - N/A   Partly Cloudy